CW9533 Torre Faro Messina IT current weather conditions

sailwx.info

Wind from 360 at 4 knots gusting 9

Air temperature 26.7° C
Dewpoint 19.5° C

Last reported at 2019-Sep-18 11:01 UTC.
Time now 2019-Sep-18 11:18 UTC

Location: N 38°16' E 015°39'.
View on Google Maps.

See reports from other nearby stations

  
Tides and Currents Weather Stations Pressure Air Temp Water Temp Dewpoint Dewpoint Depression Visibility Wind Speed Wind Dir Waves Ship Positions
date/time (UTC)wind fromknots sea level pressurealtimeterstation pressurevisibilityair tempwater tempwave heightnotes
2019-Sep-18 11:01 360 4 gusting 9 26.7
2019-Sep-18 10:45 015 2 gusting 7 27.2
2019-Sep-18 10:30 355 4 gusting 8 26.7
2019-Sep-18 10:15 019 4 gusting 8 26.1
2019-Sep-18 10:01 019 3 gusting 6 26.7
2019-Sep-18 09:46 040 1 gusting 6 26.7
2019-Sep-18 09:32 043 26.7
2019-Sep-18 09:16 053 0 gusting 6 26.7
2019-Sep-18 09:01 053 26.7
2019-Sep-18 08:46 056 26.7
2019-Sep-18 08:30 056 26.7
2019-Sep-18 08:15 057 0 gusting 6 26.1
2019-Sep-18 08:00 050 26.1
2019-Sep-18 07:45 052 26.1
2019-Sep-18 07:30 051 26.1
2019-Sep-18 07:15 055 26.1
2019-Sep-18 07:00 054 25.6
2019-Sep-18 06:45 056 25.0
2019-Sep-18 06:30 053 25.0
2019-Sep-18 06:16 053 25.0
2019-Sep-18 06:02 053 24.4
2019-Sep-18 05:46 053 0 gusting 4 24.4
2019-Sep-18 05:31 049 24.4
2019-Sep-18 05:16 050 24.4
2019-Sep-18 05:01 026 24.4
2019-Sep-18 04:46 026 0 gusting 7 24.4
2019-Sep-18 04:30 059 23.9
2019-Sep-18 04:16 059 23.9
2019-Sep-18 04:00 059 23.9
2019-Sep-18 03:45 059 23.9
2019-Sep-18 03:30 059 23.9
2019-Sep-18 03:15 059 23.9
2019-Sep-18 02:47 078 23.9
2019-Sep-18 02:31 076 23.9
2019-Sep-18 02:16 071 23.9
2019-Sep-18 02:02 069 23.9
2019-Sep-18 01:46 067 23.9
2019-Sep-18 01:31 067 23.9
2019-Sep-18 01:15 065 23.9
2019-Sep-18 01:00 065 23.9
2019-Sep-18 00:45 065 23.9
2019-Sep-18 00:30 063 23.3
2019-Sep-18 00:15 063 23.9
2019-Sep-18 00:00 063 23.9
2019-Sep-17 23:45 063 23.9
2019-Sep-17 23:31 063 23.9
2019-Sep-17 23:17 063 23.9
2019-Sep-17 23:03 063 23.9
2019-Sep-17 22:46 063 23.9
2019-Sep-17 22:31 063 23.9
2019-Sep-17 22:16 063 23.9
2019-Sep-17 22:01 063 23.9
2019-Sep-17 21:46 063 23.9
2019-Sep-17 21:31 063 24.4
2019-Sep-17 21:16 063 24.4
2019-Sep-17 21:01 063 24.4
2019-Sep-17 20:45 063 24.4
2019-Sep-17 20:31 063 24.4
2019-Sep-17 20:15 063 24.4
2019-Sep-17 20:01 063 24.4
2019-Sep-17 19:45 063 24.4
2019-Sep-17 19:30 063 25.0
2019-Sep-17 19:16 063 25.0
2019-Sep-17 19:00 063 25.0
2019-Sep-17 18:45 061 25.0
2019-Sep-17 18:30 061 25.0
2019-Sep-17 18:15 061 25.0
2019-Sep-17 18:00 053 25.6
2019-Sep-17 17:47 053 25.6
2019-Sep-17 17:30 054 25.6
2019-Sep-17 17:15 054 25.6
2019-Sep-17 17:00 054 25.6
2019-Sep-17 16:45 054 26.1
2019-Sep-17 16:31 054 26.1
2019-Sep-17 16:15 055 26.7
2019-Sep-17 16:00 048 26.7
2019-Sep-17 15:46 044 26.7
2019-Sep-17 15:30 039 26.7
2019-Sep-17 15:15 039 0 gusting 5 26.7
2019-Sep-17 15:01 040 1 gusting 6 26.7
2019-Sep-17 14:45 040 1 gusting 6 26.7
2019-Sep-17 14:30 045 27.2
2019-Sep-17 14:15 055 0 gusting 6 27.2
2019-Sep-17 14:01 057 1 gusting 5 27.8
2019-Sep-17 13:45 061 28.3
2019-Sep-17 13:31 068 28.3
2019-Sep-17 13:15 054 28.9
2019-Sep-17 13:00 040 27.8
2019-Sep-17 12:45 040 2 gusting 6 27.8
2019-Sep-17 12:30 061 0 gusting 5 28.3
2019-Sep-17 12:15 060 28.9
2019-Sep-17 12:02 053 1 gusting 5 27.8
2019-Sep-17 11:47 058 0 gusting 6 27.8
2019-Sep-17 11:32 059 1 gusting 6 27.8
2019-Sep-17 11:16 041 1 gusting 5 27.8
2019-Sep-17 11:01 043 27.8
2019-Sep-17 10:46 046 0 gusting 6 27.8
2019-Sep-17 10:31 055 1 gusting 6 27.8
2019-Sep-17 10:15 055 0 gusting 6 27.2
2019-Sep-17 10:00 060 1 gusting 6 27.8
2019-Sep-17 09:45 044 2 gusting 6 27.2
2019-Sep-17 09:30 046 27.2
2019-Sep-17 09:15 054 0 gusting 6 26.7
2019-Sep-17 09:00 056 27.2
2019-Sep-17 08:45 056 26.7
2019-Sep-17 08:32 057 1 gusting 6 26.7
2019-Sep-17 08:16 061 0 gusting 4 26.7
2019-Sep-17 08:02 061 26.7
2019-Sep-17 07:47 063 1 gusting 6 26.1
2019-Sep-17 07:30 068 26.1
2019-Sep-17 07:16 071 25.6
2019-Sep-17 07:00 074 25.6
2019-Sep-17 06:45 074 25.6
2019-Sep-17 06:30 074 25.0
2019-Sep-17 06:16 074 25.0
2019-Sep-17 06:00 074 25.0
2019-Sep-17 05:45 074 24.4
2019-Sep-17 05:30 074 24.4
2019-Sep-17 05:15 080 23.9
2019-Sep-17 05:01 080 23.9
2019-Sep-17 04:46 080 23.3
2019-Sep-17 04:31 080 23.3
2019-Sep-17 04:17 080 23.3
2019-Sep-17 04:02 080 23.9
2019-Sep-17 03:46 080 23.3
2019-Sep-17 03:31 079 23.9
2019-Sep-17 03:15 078 23.9
2019-Sep-17 03:00 076 23.9
2019-Sep-17 02:46 076 23.9
2019-Sep-17 02:30 071 23.9
2019-Sep-17 02:15 068 23.9
2019-Sep-17 02:00 068 23.9
2019-Sep-17 01:45 069 23.9
2019-Sep-17 01:32 068 23.9
2019-Sep-17 01:18 068 23.9
2019-Sep-17 01:02 069 23.9
2019-Sep-17 00:46 069 23.9
2019-Sep-17 00:31 069 23.9
2019-Sep-17 00:16 068 23.9
2019-Sep-17 00:01 053 23.9
2019-Sep-16 23:46 053 23.9
2019-Sep-16 23:31 053 23.9
2019-Sep-16 23:15 053 23.9
2019-Sep-16 23:00 053 24.4
2019-Sep-16 22:45 053 24.4
2019-Sep-16 22:30 053 24.4
2019-Sep-16 22:15 053 24.4
2019-Sep-16 22:02 053 24.4
2019-Sep-16 21:47 053 24.4
2019-Sep-16 21:32 053 24.4
2019-Sep-16 21:16 053 24.4
2019-Sep-16 21:02 053 24.4
2019-Sep-16 20:47 053 24.4
2019-Sep-16 20:31 053 25.0
2019-Sep-16 20:17 053 25.0
2019-Sep-16 20:01 053 25.0
2019-Sep-16 19:47 053 25.0
2019-Sep-16 19:31 053 25.6
2019-Sep-16 19:16 053 25.6
2019-Sep-16 19:01 053 25.0
2019-Sep-16 18:46 053 25.6
2019-Sep-16 18:31 053 25.6
2019-Sep-16 18:16 053 25.6
2019-Sep-16 18:01 053 25.6
2019-Sep-16 17:46 053 25.6
2019-Sep-16 17:33 053 25.6
2019-Sep-16 17:16 053 25.6
2019-Sep-16 17:02 053 26.1
2019-Sep-16 16:46 053 26.1
2019-Sep-16 16:32 053 26.1
2019-Sep-16 16:16 054 26.7
2019-Sep-16 16:01 054 26.7
2019-Sep-16 15:46 054 26.7
2019-Sep-16 15:31 054 0 gusting 5 26.7
2019-Sep-16 15:16 054 27.2
2019-Sep-16 15:01 022 1 gusting 4 27.2
2019-Sep-16 14:46 021 0 gusting 4 27.2
2019-Sep-16 14:30 022 27.2
2019-Sep-16 14:15 017 0 gusting 6 27.2
2019-Sep-16 14:00 019 1 gusting 6 27.8
2019-Sep-16 13:45 019 1 gusting 6 27.8
2019-Sep-16 13:30 009 1 gusting 4 28.3
2019-Sep-16 13:15 010 1 gusting 5 28.3
2019-Sep-16 13:00 360 30.0
2019-Sep-16 12:47 251 30.0
2019-Sep-16 12:31 250 0 gusting 6 29.4
2019-Sep-16 12:16 200 0 gusting 6 28.9
2019-Sep-16 12:01 221 0 gusting 5 29.4
2019-Sep-16 11:46 226 0 gusting 6 29.4
2019-Sep-16 11:31 241 29.4
2019-Sep-16 11:15 216 0 gusting 6 29.4
2019-Sep-16 11:00 269 30.0